[[{"header":{"parameterUnit":"m.s-1","parameterCategory":1,"la1":30.2991,"la2":30.254,"lo1":-89.0895,"lo2":-89.0444,"dy":0.0017,"dx":0.0017,"nx":28,"ny":28,"refTime":"2024-03-24T03:00:00:Z","depth":0,"parameterNumber":2,"parameterNumberName":"U-component_of_WINDS"},"data":[0,0,0,0,0,0,0,0,0,0,0,0,0,0,0,0,0,0,0,0,0,0,0,0,0,0,0,0,0,0,0,0,0,0,0,0,0,0,0,0,0,0,0,0,0,0,0,0,0,0,0,0,0,0,0,0,0,0,-7.0303,-7.0304,0,-7.0454,-7.0455,-7.0457,-7.0488,-7.0486,-7.0485,-7.0484,-7.0639,-7.0644,-7.065,0,0,0,0,0,0,0,0,0,0,0,0,0,-7.0042,-7.0046,-7.0303,-7.0304,-7.0306,-7.0453,-7.0455,-7.0457,-7.0488,-7.0486,-7.0485,-7.0484,-7.0638,-7.0644,-7.065,0,0,0,0,0,0,0,0,0,0,0,0,0,-7.017,-7.0048,-7.0302,-7.0339,-7.0344,-7.0453,-7.0456,-7.0458,-7.0488,-7.0486,-7.0485,-7.0483,-7.0636,-7.0643,-7.0651,-7.0734,0,0,-7.0675,-7.0678,0,0,0,0,0,0,0,0,-7.0163,-7.018,-7.0332,-7.0337,-7.0342,-7.045,-7.0421,-7.0551,-7.0488,-7.0433,-7.0484,-7.0482,-7.0578,-7.059,-7.0622,-7.0741,-7.0748,-7.0676,-7.068,-7.0684,-7.0686,0,0,0,0,0,0,0,-7.0154,-7.0173,-7.0362,-7.0334,-7.034,-7.0349,-7.0365,-7.0445,-7.0514,-7.0438,-7.0441,-7.0458,-7.058,-7.0615,-7.0626,-7.075,-7.0675,-7.0682,-7.0687,-7.069,-7.0945,-7.0947,0,0,0,0,0,0,-7.0138,-7.0166,-7.0358,-7.0367,-7.0246,-7.0355,-7.0373,-7.0417,-7.0513,-7.0526,-7.0459,-7.0459,-7.0602,-7.0617,-7.0632,-7.0734,-7.0684,-7.0691,-7.0695,-7.0943,-7.0945,-7.0948,0,0,0,0,0,0,-7.0133,-7.0155,-7.0351,-7.0267,-7.0293,-7.0361,-7.041,-7.0421,-7.0455,-7.0529,-7.0541,-7.0482,-7.0602,-7.0621,-7.0708,-7.074,-7.0694,-7.0702,-7.0941,-7.0944,-7.0947,-7.0941,0,0,0,0,0,0,-7.0125,-7.0153,-7.0185,-7.0268,-7.0297,-7.0425,-7.0413,-7.0425,-7.0469,-7.047,-7.0553,-7.0565,-7.0602,-7.0696,-7.0716,-7.075,-7.0708,-7.0938,-7.0942,-7.0946,-7.0938,-7.0943,-7.0947,0,0,0,0,0,-7.0116,-7.0177,-7.0186,-7.0209,-7.0338,-7.0426,-7.0443,-7.0484,-7.0471,-7.0504,-7.0551,-7.0563,-7.0734,-7.0705,-7.0728,-7.0764,-7.0936,-7.0941,-7.0945,-7.0936,-7.0942,-7.0947,0,0,0,0,0,0,-7.0096,-7.0189,-7.0199,-7.029,-7.035,-7.0431,-7.0473,-7.0489,-7.0554,-7.0552,-7.06,-7.0618,-7.0703,-7.0743,-7.0709,-7.085,-7.0835,-7.0844,-7.082,-7.0826,-7.0831,-7.0818,-7.0714,0,0,0,0,0,-7.0102,-7.0166,-7.0244,-7.0316,-7.0346,-7.0404,-7.0444,-7.047,-7.0535,-7.056,-7.0614,-7.0677,-7.0745,-7.0788,-7.0855,-7.0946,-7.0964,-7.0982,-7.0987,-7.099,-7.0997,-7.1047,-7.1056,-7.0963,-7.0963,-7.0963,0,0,-7.0115,-7.0174,-7.0211,-7.0313,-7.0363,-7.0428,-7.0426,-7.0494,-7.0543,-7.0571,-7.0656,-7.0698,-7.0771,-7.086,-7.0902,-7.0896,-7.1027,-7.0996,-7.0998,-7.1003,-7.1053,-7.1061,-7.1069,-7.0966,-7.0966,-7.0965,0,0,-7.0172,-7.0224,-7.0289,-7.0339,-7.0414,-7.0453,-7.0469,-7.0549,-7.0578,-7.0664,-7.0686,-7.0746,-7.0862,-7.0913,-7.0954,-7.1032,-7.1045,-7.1053,-7.1076,-7.1124,-7.1131,-7.1138,-7.1164,-7.1173,-7.106,-7.106,-7.106,0,-7.0179,-7.0277,-7.032,-7.0388,-7.0432,-7.0461,-7.0528,-7.0575,-7.0668,-7.0698,-7.0691,-7.0837,-7.0889,-7.0989,-7.1009,-7.1042,-7.1061,-7.1042,-7.1127,-7.1134,-7.1141,-7.1166,-7.1176,-7.106,-7.106,-7.106,-7.106,0,-7.0281,-7.0349,-7.0393,-7.0482,-7.0531,-7.0598,-7.0652,-7.0697,-7.072,-7.076,-7.0848,-7.0911,-7.099,-7.1017,-7.104,-7.1122,-7.1115,-7.1117,-7.1102,-7.1149,-7.1174,-7.1184,-7.1061,-7.1061,-7.106,-7.106,0,0,-7.0326,-7.044,-7.0455,-7.0496,-7.0582,-7.0636,-7.0705,-7.0782,-7.0819,-7.0884,-7.0942,-7.1041,-7.1043,-7.109,-7.1119,-7.1162,-7.1218,-7.1159,-7.1161,-7.1165,-7.1311,-7.1307,-7.1318,-7.1229,-7.1231,-7.1232,-7.1304,0,-7.0392,-7.0514,-7.0556,-7.0657,-7.072,-7.075,-7.081,-7.087,-7.091,-7.097,-7.1015,-7.1083,-7.1081,-7.111,-7.1154,-7.1202,-7.1248,-7.1198,-7.1282,-7.1285,-7.126,-7.1331,-7.1327,-7.1392,-7.1314,-7.1316,-7.1317,0,-7.0484,-7.0549,-7.0656,-7.0735,-7.0763,-7.0816,-7.089,-7.0948,-7.1017,-7.1043,-7.1096,-7.1122,-7.1196,-7.1179,-7.128,-7.1245,-7.1283,-7.1312,-7.1316,-7.1323,-7.1302,-7.1338,-7.1414,-7.1422,-7.1333,-7.1332,-7.1331,0,-7.0503,-7.0619,-7.0697,-7.0732,-7.0826,-7.0862,-7.0904,-7.0971,-7.1015,-7.1081,-7.111,-7.1185,-7.1225,-7.1282,-7.1328,-7.1311,-7.1425,-7.1412,-7.1448,-7.1447,-7.1468,-7.1466,-7.1548,-7.1497,-7.1497,-7.1497,-7.1496,0,-7.057,-7.0634,-7.0707,-7.0756,-7.0829,-7.0877,-7.0948,-7.0991,-7.1051,-7.1109,-7.1141,-7.1194,-7.1253,-7.1314,-7.1351,-7.1429,-7.1448,-7.147,-7.1479,-7.1466,-7.1463,-7.1489,-7.1485,-7.1499,-7.1499,-7.1498,-7.1498,0,-7.0603,-7.0655,-7.0743,-7.0825,-7.0848,-7.0898,-7.0968,-7.1017,-7.1059,-7.1131,-7.1151,-7.1218,-7.1292,-7.1344,-7.144,-7.1464,-7.1548,-7.1557,-7.1524,-7.1528,-7.156,-7.1555,-7.166,-7.1676,-7.1616,-7.1616,-7.1617,0,-7.0641,-7.0691,-7.0779,-7.0819,-7.086,-7.0926,-7.0971,-7.1022,-7.1068,-7.1151,-7.1189,-7.1265,-7.1328,-7.1445,-7.1502,-7.1576,-7.1586,-7.1618,-7.1597,-7.1582,-7.1584,-7.1579,-7.1584,-7.1619,-7.162,-7.162,-7.162,0,-7.0702,-7.0725,-7.0789,-7.0863,-7.0916,-7.0976,-7.1037,-7.1069,-7.113,-7.118,-7.1256,-7.1305,-7.1403,-7.1478,-7.1557,-7.16,-7.162,-7.1627,-7.1639,-7.1625,-7.1602,-7.1613,-7.153,-7.1624,-7.1623,-7.1623,-7.1623,-7.1623,-7.0737,-7.0783,-7.0852,-7.0922,-7.0973,-7.1029,-7.1078,-7.1127,-7.1191,-7.1274,-7.1301,-7.1379,-7.1448,-7.1556,-7.1601,-7.1663,-7.1661,-7.1679,-7.1683,-7.1686,-7.1684,-7.1595,-7.1678,-7.1678,-7.1678,-7.1678,-7.1678,0,-7.0798,-7.0844,-7.0909,-7.0992,-7.1048,-7.1063,-7.1131,-7.1177,-7.1245,-7.1307,-7.1369,-7.1456,-7.153,-7.1593,-7.167,-7.1707,-7.1719,-7.1725,-7.1722,-7.1731,-7.1682,-7.1663,-7.1715,-7.1715,-7.1715,-7.1715,-7.1715,-7.1715,-7.0836,-7.0913,-7.0945,-7.1049,-7.1095,-7.1171,-7.1209,-7.1261,-7.1311,-7.1407,-7.1468,-7.1509,-7.1572,-7.1653,-7.1721,-7.1738,-7.1764,-7.1768,-7.1787,-7.1739,-7.1735,-7.173,-7.1713,-7.1774,-7.1774,-7.183,-7.1831,-7.1831]},{"header":{"parameterUnit":"m.s-1","parameterCategory":1,"la1":30.2991,"la2":30.254,"lo1":-89.0895,"lo2":-89.0444,"dy":0.0017,"dx":0.0017,"nx":28,"ny":28,"refTime":"2024-03-24T03:00:00:Z","depth":0,"parameterNumber":3,"parameterNumberName":"V-component_of_WINDS"},"data":[0,0,0,0,0,0,0,0,0,0,0,0,0,0,0,0,0,0,0,0,0,0,0,0,0,0,0,0,0,0,0,0,0,0,0,0,0,0,0,0,0,0,0,0,0,0,0,0,0,0,0,0,0,0,0,0,0,0,5.681,5.681,0,5.6791,5.679,5.679,5.6737,5.6736,5.6735,5.6734,5.6708,5.6708,5.6709,0,0,0,0,0,0,0,0,0,0,0,0,0,5.68,5.6801,5.6811,5.681,5.681,5.6791,5.679,5.679,5.6737,5.6736,5.6734,5.6733,5.6708,5.6708,5.6709,0,0,0,0,0,0,0,0,0,0,0,0,0,5.6795,5.6801,5.6811,5.6781,5.6779,5.6791,5.679,5.679,5.6737,5.6736,5.6734,5.6732,5.6708,5.6708,5.6709,5.6746,0,0,5.6711,5.6711,0,0,0,0,0,0,0,0,5.6795,5.6795,5.6786,5.6783,5.678,5.6765,5.6777,5.6775,5.6738,5.6753,5.6734,5.6732,5.6728,5.6727,5.6726,5.6745,5.6744,5.6711,5.6711,5.6711,5.6711,0,0,0,0,0,0,0,5.6796,5.6796,5.6802,5.6786,5.6782,5.6769,5.6766,5.6777,5.675,5.6751,5.6748,5.6746,5.6726,5.6726,5.6725,5.6743,5.6711,5.6711,5.6711,5.6712,5.6796,5.6798,0,0,0,0,0,0,5.6801,5.6797,5.6803,5.6802,5.6784,5.677,5.6767,5.6771,5.675,5.6745,5.6748,5.6744,5.6726,5.6725,5.6724,5.6769,5.6711,5.6712,5.6712,5.6794,5.6796,5.6798,0,0,0,0,0,0,5.6801,5.6802,5.6804,5.6798,5.6798,5.6772,5.6777,5.6772,5.6772,5.6747,5.6741,5.6753,5.6725,5.6724,5.6742,5.6768,5.6712,5.6712,5.6792,5.6795,5.6797,5.6858,0,0,0,0,0,0,5.6801,5.6802,5.6816,5.6799,5.6798,5.6823,5.6779,5.6773,5.6774,5.6768,5.675,5.6746,5.6723,5.6742,5.6743,5.6767,5.6713,5.6789,5.6793,5.6796,5.6854,5.6863,5.6871,0,0,0,0,0,5.6801,5.6832,5.6817,5.6818,5.6815,5.6825,5.6824,5.6799,5.6776,5.679,5.6775,5.6746,5.6765,5.6744,5.6745,5.677,5.6787,5.6792,5.6796,5.685,5.6861,5.687,0,0,0,0,0,0,5.685,5.6829,5.6812,5.684,5.6835,5.6816,5.6832,5.681,5.681,5.6805,5.6773,5.6769,5.6793,5.6783,5.6761,5.6807,5.6772,5.6777,5.6813,5.6823,5.6831,5.6833,5.6713,0,0,0,0,0,5.6865,5.6875,5.6856,5.6881,5.688,5.6857,5.686,5.6842,5.6834,5.6831,5.6817,5.681,5.6815,5.6818,5.682,5.6853,5.6849,5.687,5.6879,5.6886,5.689,5.691,5.692,5.6812,5.6812,5.6812,0,0,5.6893,5.6884,5.6891,5.6891,5.6885,5.6897,5.6855,5.6868,5.6876,5.6832,5.6851,5.6841,5.6831,5.6858,5.6868,5.685,5.692,5.6891,5.6897,5.6897,5.6915,5.6925,5.6935,5.6815,5.6815,5.6814,0,0,5.6953,5.6946,5.6969,5.6965,5.6957,5.6943,5.6948,5.6934,5.6926,5.6945,5.6913,5.6922,5.693,5.6926,5.6924,5.6988,5.6962,5.6989,5.7032,5.7052,5.7061,5.7068,5.7093,5.7102,5.6993,5.6994,5.6994,0,5.6989,5.7007,5.6982,5.6999,5.7001,5.6965,5.6988,5.6985,5.6978,5.698,5.696,5.6973,5.6963,5.699,5.7006,5.7005,5.7012,5.6991,5.7062,5.7069,5.7075,5.7099,5.7108,5.6997,5.6997,5.6996,5.6996,0,5.7054,5.7066,5.7085,5.7084,5.7087,5.7107,5.7085,5.7092,5.7075,5.7062,5.7083,5.7071,5.7073,5.7078,5.7059,5.7103,5.7092,5.7068,5.7031,5.7089,5.7111,5.7119,5.7002,5.7001,5.7,5.6999,0,0,5.7141,5.7129,5.7136,5.7137,5.7128,5.7137,5.7156,5.7161,5.7168,5.7165,5.7181,5.7191,5.717,5.7169,5.7149,5.7167,5.7221,5.714,5.7139,5.7157,5.7272,5.7292,5.7303,5.7205,5.7206,5.7208,5.7274,0,5.7199,5.7232,5.7213,5.7249,5.7262,5.723,5.7247,5.7244,5.7234,5.7243,5.723,5.7239,5.7209,5.7209,5.7224,5.7211,5.7244,5.7206,5.722,5.7221,5.7225,5.7314,5.7334,5.7397,5.7282,5.7283,5.7284,0,5.727,5.7275,5.7313,5.7307,5.7311,5.7327,5.7331,5.734,5.7337,5.7328,5.733,5.7308,5.7326,5.7292,5.7318,5.7293,5.7297,5.7292,5.7294,5.7295,5.7256,5.7318,5.7416,5.7426,5.7297,5.7296,5.7295,0,5.7333,5.7349,5.7375,5.7376,5.7368,5.738,5.7377,5.7372,5.7377,5.7381,5.7384,5.7389,5.7391,5.7396,5.7376,5.7352,5.7406,5.7369,5.74,5.7401,5.7413,5.7412,5.7514,5.7414,5.7414,5.7414,5.7414,0,5.7401,5.7426,5.7404,5.742,5.7448,5.7426,5.7454,5.7447,5.7444,5.7459,5.7431,5.7445,5.7417,5.7429,5.7413,5.7439,5.744,5.7434,5.743,5.7437,5.7439,5.744,5.7436,5.7416,5.7416,5.7415,5.7415,0,5.7476,5.7462,5.7488,5.748,5.7479,5.75,5.7493,5.7508,5.7497,5.7516,5.7519,5.7502,5.7515,5.7496,5.7505,5.7495,5.7532,5.752,5.7534,5.7531,5.7564,5.7562,5.7671,5.7686,5.7575,5.7576,5.7577,0,5.752,5.754,5.7535,5.7544,5.7544,5.7558,5.7564,5.7544,5.7551,5.7552,5.7567,5.7578,5.7586,5.7607,5.7595,5.7603,5.7592,5.763,5.7593,5.7601,5.7595,5.7595,5.7598,5.7638,5.7639,5.764,5.7641,0,5.7602,5.7595,5.7606,5.7616,5.7626,5.7632,5.7636,5.7644,5.7623,5.7633,5.7648,5.7654,5.7666,5.7678,5.7684,5.768,5.7658,5.7653,5.7661,5.7669,5.7678,5.7676,5.7556,5.765,5.765,5.7649,5.7648,5.7648,5.7664,5.7681,5.7682,5.7697,5.7698,5.7704,5.7719,5.7712,5.7724,5.7734,5.7721,5.7739,5.7738,5.7744,5.7744,5.7758,5.7741,5.7752,5.7755,5.7759,5.7765,5.7675,5.7758,5.7758,5.7758,5.7758,5.7757,0,5.7746,5.7746,5.776,5.7769,5.7781,5.7761,5.7765,5.7777,5.7794,5.7796,5.7806,5.7823,5.7836,5.7827,5.7837,5.785,5.7841,5.7854,5.7853,5.7853,5.7778,5.7771,5.7862,5.7862,5.7862,5.7862,5.7862,5.7862,5.779,5.782,5.7814,5.7845,5.7844,5.7864,5.7869,5.7874,5.7876,5.7899,5.791,5.7905,5.7903,5.7914,5.7925,5.7922,5.7927,5.7945,5.7938,5.7868,5.7858,5.7848,5.7842,5.7946,5.7946,5.8013,5.8013,5.8014]}]]